Weather History for Washington, MO

Change the Weather History Date:

Wednesday, November 28, 2012

  Actual Average (KSTL) Record (KSTL)
Temperature  
Mean Temperature 34 °F 41 °F  
Max Temperature 50 °F 49 °F 77 °F (1905)
Min Temperature 19 °F 33 °F 10 °F (1887)
Degree Days  
Heating Degree Days 30 24  
Month to date heating degree days 499  
Since 1 July heating degree days 775  
Cooling Degree Days 0 0  
Month to date cooling degree days 0  
Year to date cooling degree days 1642  
Moisture  
Dew Point 23 °F    
Average Humidity 76    
Maximum Humidity 100    
Minimum Humidity 40    
Precipitation  
Precipitation 0.00 in 0.14 in 1.56 in (1968)
Month to date precipitation 3.66  
Year to date precipitation 37.87  
Snow  
Snow - 0.10 in 6.50 in (1929)
Month to date snowfall 0.6  
Since 1 July snowfall 0.6  
Since 1 September snowfall 0.6  
Snow Depth -    
Sea Level Pressure  
Sea Level Pressure 30.36 in    
Wind  
Wind Speed 0 mph ()    
Max Wind Speed 7 mph    
Max Gust Speed -    
Visibility 9.8 miles    
Events      
T = Trace of Precipitation, MM = Missing Value Source: Averaged Metar Reports

Daily Weather History Graph

Daily Weather History Graph

Search for Another Location

Airport:

Trip Planner

Search our weather history database for the weather conditions in past years. The results will help you decide how hot, cold, wet, or windy it might be!

Date:

Astronomy

Nov. 28, 2012 Rise Set
Actual Time 7:00 AM CST 4:43 PM CST
Civil Twilight 6:31 AM CST 5:12 PM CST
Nautical Twilight 5:58 AM CST 5:45 PM CST
Astronomical Twilight 5:26 AM CST 6:17 PM CST
Moon 4:59 PM CST (11/28) 6:57 AM CST (11/28)
Length of Visible Light 10h 41m
Length of Day
9h 43m
Full, 100% of the Moon is Illuminated
Nov 28
Full
Dec 6
Last Quarter
Dec 13
New
Dec 19
First Quarter
Dec 28
Full

Hourly Weather History & Observations

Time (CST) Temp. Dew Point Humidity Pressure Visibility Wind Dir Wind Speed Gust Speed Precip Events Conditions
12:35 AM 24.8 °F 21.2 °F 86% 30.35 in 10.0 mi Calm Calm - N/A   Clear
12:55 AM 24.8 °F 19.4 °F 80% 30.35 in 10.0 mi Calm Calm - N/A   Clear
1:15 AM 21.2 °F 19.4 °F 93% 30.35 in 10.0 mi Calm Calm - N/A   Clear
1:35 AM 19.4 °F 17.6 °F 93% 30.35 in 10.0 mi Calm Calm - N/A   Clear
1:55 AM 21.2 °F 19.4 °F 93% 30.36 in 10.0 mi Calm Calm - N/A   Clear
2:15 AM 21.2 °F 19.4 °F 93% 30.36 in 10.0 mi Calm Calm - N/A   Clear
2:35 AM 21.2 °F 19.4 °F 93% 30.36 in 10.0 mi Calm Calm - N/A   Clear
2:55 AM 21.2 °F 19.4 °F 93% 30.37 in 10.0 mi Calm Calm - N/A   Clear
3:15 AM 21.2 °F 19.4 °F 93% 30.37 in 10.0 mi Calm Calm - N/A   Clear
3:35 AM 19.4 °F 19.4 °F 100% 30.37 in 9.0 mi Calm Calm - N/A   Clear
3:55 AM 21.2 °F 19.4 °F 93% 30.37 in 10.0 mi Calm Calm - N/A   Partly Cloudy
4:15 AM 21.2 °F 19.4 °F 93% 30.37 in 10.0 mi Calm Calm - N/A   Scattered Clouds
4:35 AM 21.2 °F 19.4 °F 93% 30.37 in 10.0 mi Calm Calm - N/A   Partly Cloudy
4:55 AM 19.4 °F 19.4 °F 100% 30.38 in 9.0 mi Calm Calm - N/A   Partly Cloudy
5:15 AM 19.4 °F 19.4 °F 100% 30.38 in 9.0 mi Calm Calm - N/A   Clear
5:35 AM 19.4 °F 19.4 °F 100% 30.39 in 9.0 mi Calm Calm - N/A   Partly Cloudy
5:55 AM 19.4 °F 19.4 °F 100% 30.39 in 9.0 mi Calm Calm - N/A   Scattered Clouds
6:15 AM 19.4 °F 19.4 °F 100% 30.39 in 9.0 mi Calm Calm - N/A   Scattered Clouds
6:35 AM 19.4 °F 17.6 °F 93% 30.40 in 9.0 mi Calm Calm - N/A   Partly Cloudy
6:55 AM 19.4 °F 17.6 °F 93% 30.40 in 9.0 mi Calm Calm - N/A   Clear
7:15 AM 19.4 °F 17.6 °F 93% 30.41 in 8.0 mi Calm Calm - N/A   Clear
7:35 AM 19.4 °F 17.6 °F 93% 30.42 in 8.0 mi Calm Calm - N/A   Clear
7:55 AM 21.2 °F 19.4 °F 93% 30.43 in 8.0 mi Calm Calm - N/A   Clear
8:15 AM 24.8 °F 23.0 °F 93% 30.43 in 9.0 mi Calm Calm - N/A   Clear
8:35 AM 26.6 °F 24.8 °F 93% 30.43 in 9.0 mi Calm Calm - N/A   Clear
8:55 AM 28.4 °F 23.0 °F 80% 30.44 in 10.0 mi Calm Calm - N/A   Clear
9:15 AM 30.2 °F 23.0 °F 75% 30.44 in 10.0 mi Calm Calm - N/A   Clear
9:35 AM 32.0 °F 24.8 °F 75% 30.45 in 10.0 mi Calm Calm - N/A   Clear
9:55 AM 32.0 °F 24.8 °F 75% 30.45 in 10.0 mi Calm Calm - N/A   Clear
10:15 AM 35.6 °F 26.6 °F 70% 30.45 in 10.0 mi Calm Calm - N/A   Clear
10:35 AM 37.4 °F 24.8 °F 60% 30.45 in 10.0 mi Calm Calm - N/A   Clear
10:55 AM 37.4 °F 24.8 °F 60% 30.45 in 10.0 mi Calm Calm - N/A   Clear
11:15 AM 39.2 °F 24.8 °F 56% 30.44 in 10.0 mi Calm Calm - N/A   Clear
11:35 AM 41.0 °F 24.8 °F 53% 30.43 in 10.0 mi Calm Calm - N/A   Clear
12:15 PM 44.6 °F 26.6 °F 49% 30.41 in 10.0 mi Calm Calm - N/A   Clear
12:55 PM 46.4 °F 26.6 °F 46% 30.39 in 10.0 mi Calm Calm - N/A   Clear
1:15 PM 48.2 °F 26.6 °F 43% 30.38 in 10.0 mi Calm Calm - N/A   Clear
1:35 PM 48.2 °F 26.6 °F 43% 30.37 in 10.0 mi Calm Calm - N/A   Clear
1:55 PM 48.2 °F 26.6 °F 43% 30.36 in 10.0 mi Calm Calm - N/A   Clear
2:15 PM 50.0 °F 26.6 °F 40% 30.35 in 10.0 mi Calm Calm - N/A   Clear
2:55 PM 50.0 °F 28.4 °F 43% 30.34 in 10.0 mi Calm Calm - N/A   Clear
3:15 PM 50.0 °F 28.4 °F 43% 30.34 in 10.0 mi South 6.9 mph - N/A   Clear
3:35 PM 50.0 °F 28.4 °F 43% 30.34 in 10.0 mi SE 4.6 mph - N/A   Clear
3:55 PM 50.0 °F 28.4 °F 43% 30.33 in 10.0 mi SE 4.6 mph - N/A   Clear
4:15 PM 48.2 °F 26.6 °F 43% 30.33 in 10.0 mi Calm Calm - N/A   Clear
4:35 PM 48.2 °F 26.6 °F 43% 30.33 in 10.0 mi Calm Calm - N/A   Clear
5:15 PM 46.4 °F 26.6 °F 46% 30.33 in 10.0 mi Calm Calm - N/A   Clear
5:35 PM 39.2 °F 28.4 °F 65% 30.33 in 10.0 mi Calm Calm - N/A   Partly Cloudy
5:55 PM 37.4 °F 26.6 °F 65% 30.33 in 10.0 mi Calm Calm - N/A   Partly Cloudy
6:15 PM 35.6 °F 26.6 °F 70% 30.32 in 10.0 mi Calm Calm - N/A   Partly Cloudy
6:35 PM 37.4 °F 26.6 °F 65% 30.32 in 10.0 mi Calm Calm - N/A   Partly Cloudy
6:55 PM 33.8 °F 26.6 °F 75% 30.32 in 10.0 mi Calm Calm - N/A   Mostly Cloudy
7:15 PM 32.0 °F 26.6 °F 80% 30.32 in 10.0 mi Calm Calm - N/A   Mostly Cloudy
7:35 PM 32.0 °F 24.8 °F 75% 30.32 in 10.0 mi Calm Calm - N/A   Mostly Cloudy
7:55 PM 32.0 °F 24.8 °F 75% 30.31 in 10.0 mi Calm Calm - N/A   Mostly Cloudy
8:15 PM 32.0 °F 24.8 °F 75% 30.31 in 10.0 mi Calm Calm - N/A   Mostly Cloudy
8:35 PM 28.4 °F 24.8 °F 86% 30.31 in 10.0 mi Calm Calm - N/A   Mostly Cloudy
8:55 PM 30.2 °F 24.8 °F 80% 30.31 in 10.0 mi Calm Calm - N/A   Mostly Cloudy
9:15 PM 28.4 °F 24.8 °F 86% 30.30 in 10.0 mi Calm Calm - N/A   Scattered Clouds
9:35 PM 30.2 °F 24.8 °F 80% 30.30 in 10.0 mi Calm Calm - N/A   Partly Cloudy
9:55 PM 28.4 °F 24.8 °F 86% 30.30 in 10.0 mi Calm Calm - N/A   Partly Cloudy
10:15 PM 28.4 °F 24.8 °F 86% 30.29 in 10.0 mi Calm Calm - N/A   Partly Cloudy
10:35 PM 26.6 °F 23.0 °F 86% 30.29 in 10.0 mi Calm Calm - N/A   Partly Cloudy
10:55 PM 28.4 °F 24.8 °F 86% 30.29 in 10.0 mi Calm Calm - N/A   Clear
11:15 PM 28.4 °F 24.8 °F 86% 30.29 in 10.0 mi Calm Calm - N/A   Clear
11:35 PM 32.0 °F 24.8 °F 75% 30.29 in 10.0 mi Calm Calm - N/A   Clear
11:55 PM 32.0 °F 24.8 °F 75% 30.29 in 10.0 mi Calm Calm - N/A   Clear